Location: ??????
(38.0131°N, 23.7723°E)
Time: 18:07:56
(UTC+00:00)

METEOR 2-5 DEB - Pass Details

Date: 15 August 2022
Orbit: 809 x 849 km, 81.2° (Epoch: 29 September)

Event Time Altitude Azimuth Distance (km) Brightness Sun altitude
Rises 17:52:36 0° 13° (NNE) 3,353 ? -7.1°
Reaches altitude 10° 17:56:47 10° 43° (NE) 2,407 ? -7.9°
Maximum altitude 17:58:48 12° 66° (ENE) 2,261 ? -8.2°
Drops below altitude 10° 18:00:49 10° 88° (E) 2,396 ? -8.6°
Enters shadow 18:01:30 - 94° (E) 2,499 ? -8.7°
